loading
|

SCOUT X-4 DEB, 2986

Orbit data source: Space-Track

SCOUT X-4 DEB, 2986 is space debris in LEO originally from a launch on Thu, 04 Jun 1964 UTC launched from the Air Force Western Test Range (AFWTR). Debris objects in space refer to the collection of defunct objects orbiting the Earth. Examples of debris include non-operational satellites, rocket bodies, and fragments generated from explosions, collisions, or faulty payload assembly.

Loading next visibility...
Loading greatness...
SCOUT X-4 DEB details
Identifier
2986, 1964-026E
Orbit
LEO
Last TLE update12 hours ago
Origin
Flag of USUSN NAVAIR (US)
ManufacturerUnknown
MissionSpacecraft
Bus & MotorUnknown bus, Unknown motor
MassUnknown
Launch date (UTC)
1964-06-04 (60 years ago)
Launch vehicleUnknown
Launch site
Air Force Western Test Range (AFWTR)
Object type
Payload
Rocket body
Debris
Shape & HBRUnknown
Radar Cross SectionSmall (<0.1 m²)

Expand to show TLE details & history

TLE from 12 hours ago
0 SCOUT X-4 DEB
1 02986U 64026E   24279.37343028  .00001401  00000-0  83984-3 0  9998
2 02986  90.4832 159.5485 0047449  36.9745 323.4692 14.06081815 87358
Epoch: 2024-10-05T08:57Z
Definitive object data (Epoch: 2024-10-05T08:57:44.376Z)
Latitude0.00002°
Longitude10.58293°
Altitude848.252 km
Speed7.443 km/s
True Right ascension10h 38m 11s
True Declination0° 00' 00"
Sunlit
Object was in daylight at TLE epoch
Predictive object data (real-time)
Latitude49.76768°
Longitude10.04199°
Altitude847.455 km
Speed7.451 km/s
Apparent Right ascension06h 44m 27s
Apparent Declination14° 50' 19"
Sunlit
Object is in daylight
Predictive observer data (real-time)
Local Sidereal Time15:08:42
Azimuth305.702° NW
Elevation-15.79°
Doppler factor1
Orbital elements
Apogee904.17 km
Perigee835.389 km
Semi-major axis7,247.917 km
Eccentricity0.0047449
Inclination90.4832°
RAAN159.5485°
Arg. of periapsis36.9745°
True anomaly323.144°
Mean anomaly323.4692°
Eccentric anomaly323.30675°
Mean motion3.51741 °/min
BSTAR0.00083984
Period102.35 mins
No data available

SCOUT X-4 DEB Visibility forecast

Observer location: 39.9160978°, -105.1181434

SCOUT X-4 DEB is not visible in the next 10 days
Span
Click to sort rows by Start time (UTC) header in descending order
Start Az.
Max El. time (UTC)
Max El. Az.
Max El.
End time (UTC)
End Az.